DW0333 Tranby-Lier NO current weather conditions

sailwx.info

Wind from 170 at 1 knots

Air temperature -1.1° C
Dewpoint -1.9° C

Last reported at 2017-Nov-24 06:04 UTC.
Time now 2017-Nov-24 07:15 UTC

Location: N 59°50' E 010°17'.
View on Google Maps.

See reports from other nearby stations

  
Tides and Currents Weather Stations Pressure Air Temp Water Temp Dewpoint Dewpoint Depression Visibility Wind Speed Wind Dir Waves Ship Positions
date/time (UTC)wind fromknots sea level pressurealtimeterstation pressurevisibilityair tempwater tempwave heightnotes
2017-Nov-24 06:04 170 1 -1.1
2017-Nov-24 05:49 105 0 -1.1
2017-Nov-24 05:32 171 0 -1.1
2017-Nov-24 05:17 212 0 -0.6
2017-Nov-24 05:02 203 1 -0.6
2017-Nov-24 04:47 217 4 -0.6
2017-Nov-24 04:31 183 4 -0.0
2017-Nov-24 04:16 123 2 -0.0
2017-Nov-24 04:01 085 2 -0.0
2017-Nov-24 03:44 113 3 -0.0
2017-Nov-24 03:31 077 2 -0.0
2017-Nov-24 03:17 128 1 -0.0
2017-Nov-24 02:58 157 1 -0.0
2017-Nov-24 02:44 156 1 0.6
2017-Nov-24 02:28 212 1 0.6
2017-Nov-24 02:12 179 1 0.6
2017-Nov-24 01:58 212 2 0.6
2017-Nov-24 01:42 137 1 0.6
2017-Nov-24 01:27 082 2 0.6
2017-Nov-24 01:13 079 3 0.6
2017-Nov-24 00:56 098 1 1.1
2017-Nov-24 00:41 242 2 1.1
2017-Nov-24 00:26 147 3 1.1
2017-Nov-24 00:10 150 2 1.1
2017-Nov-23 23:55 132 4 1.1
2017-Nov-23 23:39 088 2 1.1
2017-Nov-23 23:24 127 6 1.1
2017-Nov-23 23:09 139 5 1.1
2017-Nov-23 22:53 161 5 1.7
2017-Nov-23 22:37 201 6 1.7
2017-Nov-23 22:23 173 7 1.7
2017-Nov-23 22:07 182 6 1.7
2017-Nov-23 21:52 207 5 1.1
2017-Nov-23 21:36 199 5 1.1
2017-Nov-23 21:21 201 6 1.7
2017-Nov-23 21:06 234 6 1.7
2017-Nov-23 20:50 179 6 1.7
2017-Nov-23 20:35 199 7 1.7
2017-Nov-23 20:20 183 8 1.7
2017-Nov-23 20:04 308 8 1.7
2017-Nov-23 19:50 158 9 1.7
2017-Nov-23 19:34 201 9 2.2
2017-Nov-23 19:19 207 8 2.2
2017-Nov-23 19:02 162 9 2.8
2017-Nov-23 18:48 240 9 2.8
2017-Nov-23 18:33 185 8 3.3
2017-Nov-23 18:17 200 8 3.3
2017-Nov-23 18:02 169 10 3.9
2017-Nov-23 17:46 197 9 3.9
2017-Nov-23 17:31 172 8 5.0
2017-Nov-23 17:15 167 8 5.6
2017-Nov-23 17:00 150 9 6.1
2017-Nov-23 16:45 133 8 6.7
2017-Nov-23 16:31 158 7 6.7
2017-Nov-23 16:14 154 7 6.7
2017-Nov-23 15:59 196 9 6.7
2017-Nov-23 15:44 142 9 6.7
2017-Nov-23 15:29 132 11 6.7
2017-Nov-23 15:12 110 10 6.1
2017-Nov-23 14:57 242 8 6.1
2017-Nov-23 14:41 126 8 6.1
2017-Nov-23 14:27 159 8 6.1
2017-Nov-23 14:11 189 9 6.1
2017-Nov-23 13:56 166 7 6.1
2017-Nov-23 13:41 048 7 6.1
2017-Nov-23 13:25 163 10 6.7
2017-Nov-23 13:09 153 8 6.1
2017-Nov-23 12:55 128 8 6.1
2017-Nov-23 12:39 096 7 6.1
2017-Nov-23 12:24 125 6 6.1
2017-Nov-23 12:08 138 8 6.1
2017-Nov-23 11:54 186 9 6.1
2017-Nov-23 11:38 138 8 6.1
2017-Nov-23 11:22 147 9 6.1
2017-Nov-23 11:07 196 8 6.1
2017-Nov-23 10:51 174 10 6.1
2017-Nov-23 10:36 194 9 6.1
2017-Nov-23 10:22 158 8 6.1
2017-Nov-23 10:06 179 11 6.1
2017-Nov-23 09:50 142 9 6.1
2017-Nov-23 09:35 077 10 6.1
2017-Nov-23 09:20 150 8 6.1
2017-Nov-23 09:04 179 7 5.6
2017-Nov-23 08:50 179 10 5.6
2017-Nov-23 08:34 150 8 5.6
2017-Nov-23 08:18 150 9 5.6
2017-Nov-23 08:02 185 8 5.6
2017-Nov-23 07:47 137 7 5.0
2017-Nov-23 07:32 131 8 5.0
2017-Nov-23 07:17 148 6 5.0
2017-Nov-23 07:01 144 6 5.0
2017-Nov-23 06:47 111 6 4.4
2017-Nov-23 06:31 129 5 3.9
2017-Nov-23 06:14 095 6 3.9
2017-Nov-23 06:01 115 6 3.9
2017-Nov-23 05:44 212 6 3.3
2017-Nov-23 05:29 102 6 2.8
2017-Nov-23 05:13 150 5 2.8
2017-Nov-23 04:59 142 4 2.2
2017-Nov-23 04:42 140 4 1.7
2017-Nov-23 04:28 123 3 1.1
2017-Nov-23 04:12 120 2 0.6
2017-Nov-23 03:57 162 1 0.6
2017-Nov-23 03:42 152 2 0.6
2017-Nov-23 03:34 141 1 -0.0
2017-Nov-23 03:14 113 1 -0.0
2017-Nov-23 02:55 140 1 0.6
2017-Nov-23 02:40 109 2 0.6
2017-Nov-23 02:24 127 2 0.6
2017-Nov-23 02:10 146 2 0.6
2017-Nov-23 01:54 061 1 -0.0
2017-Nov-23 01:39 054 1 -0.0
2017-Nov-23 01:24 145 0 -0.0
2017-Nov-23 01:08 145 -0.0
2017-Nov-23 00:52 145 0 -0.0
2017-Nov-23 00:37 144 1 -0.0
2017-Nov-23 00:21 356 2 -0.0
2017-Nov-23 00:06 058 0 -0.6
2017-Nov-22 23:51 056 0 -0.6
2017-Nov-22 23:36 050 -0.6
2017-Nov-22 23:20 050 -0.6
2017-Nov-22 23:04 050 -0.6
2017-Nov-22 22:50 050 -0.6
2017-Nov-22 22:34 050 -0.6
2017-Nov-22 22:18 050 0 -0.6
2017-Nov-22 22:04 050 0 -0.6
2017-Nov-22 21:48 061 0 -0.6
2017-Nov-22 21:32 341 0 -1.1
2017-Nov-22 21:18 322 0 -1.1
2017-Nov-22 21:02 058 0 -1.1
2017-Nov-22 20:46 079 0 -1.1
2017-Nov-22 20:30 321 0 -1.1
2017-Nov-22 20:16 301 0 -1.7
2017-Nov-22 20:01 079 1 -1.7
2017-Nov-22 19:45 086 1 -2.2
2017-Nov-22 19:31 030 2 -2.2
2017-Nov-22 19:14 354 2 -2.2
2017-Nov-22 18:59 307 2 -2.2
2017-Nov-22 18:43 016 2 -2.8
2017-Nov-22 18:28 331 1 -3.3
2017-Nov-22 18:13 331 2 -3.3
2017-Nov-22 17:58 358 1 -3.3
2017-Nov-22 17:42 360 1 -3.3
2017-Nov-22 17:26 021 1 -3.9
2017-Nov-22 17:12 358 1 -3.9
2017-Nov-22 16:57 006 1 -3.9
2017-Nov-22 16:41 025 1 -4.4
2017-Nov-22 16:25 346 2 -4.4
2017-Nov-22 16:10 011 1 -4.4
2017-Nov-22 15:54 055 1 -4.4
2017-Nov-22 15:39 360 2 -4.4
2017-Nov-22 15:24 338 1 -4.4
2017-Nov-22 15:09 025 2 -5.0
2017-Nov-22 14:53 342 2 -5.0
2017-Nov-22 14:38 070 2 -5.0
2017-Nov-22 14:22 008 2 -5.0
2017-Nov-22 14:09 306 3 -5.0
2017-Nov-22 13:49 279 1 -5.0
2017-Nov-22 13:34 341 2 -5.6
2017-Nov-22 13:21 345 2 -5.6
2017-Nov-22 13:04 280 2 -5.6
2017-Nov-22 12:48 304 0 -6.1
2017-Nov-22 12:33 034 1 -6.1
2017-Nov-22 12:18 335 2 -6.1
2017-Nov-22 12:03 303 1 -6.1
2017-Nov-22 11:47 050 1 -6.1
2017-Nov-22 11:32 298 1 -6.1
2017-Nov-22 11:17 265 1 -6.7
2017-Nov-22 11:02 323 1 -6.7
2017-Nov-22 10:46 310 1 -6.7
2017-Nov-22 10:32 317 1 -6.7
2017-Nov-22 10:16 181 1 -7.2
2017-Nov-22 10:01 356 2 -7.2
2017-Nov-22 09:46 044 1 -7.2
2017-Nov-22 09:32 187 3 -7.2
2017-Nov-22 09:16 040 3 -7.2
2017-Nov-22 09:02 349 3 -7.8
2017-Nov-22 08:46 063 3 -7.8
2017-Nov-22 08:28 046 3 -7.8
2017-Nov-22 08:13 116 4 -8.3
2017-Nov-22 07:58 006 2 -8.3
2017-Nov-22 07:43 021 3 -8.3
2017-Nov-22 07:28 023 3 -8.3
2017-Nov-22 07:12 036 2 -8.9